TJS-1

Last updated on Tue Oct 08 2024 00:02:40 GMT+0000 (Coordinated Universal Time)

1 40892U 15046A 24281.54459847 -.00000145 00000+0 00000+0 0 9991 2 40892 0.0236 294.0529 0003976 54.6217 19.0919 1.00273899 33360
UTC large
Height (km)
Speed (km/s)
/
Latitude / Longitude
Inclination (degrees)
Orbital Period (minutes)
Azimuth
Elevation
Range (km)
Doppler Factor

Next 0 passes for location: London (51.5072 / 0.1276)

Sorry there are no passes over London.